Cosmos 1743 Rocket - Orbit

View from above orbital plane
View from above orbital plane
View from above satellite
View from above satellite

Ground track
Ground track

The orbit data is extracted from the following two-line orbital elements,

1 16720U 86034B   13145.51008575  .00000297  00000-0  34003-4 0  1389
2 16720 082.5537 183.9835 0019098 316.1161 195.0068 14.82410968459371
Epoch (UTC): 25 May 2013 12:14:31
Eccentricity: 0.0019098
inclination: 82.5537°
perigee height: 608 km
apogee height: 635 km
right ascension of ascending node: 183.9835°
argument of perigee: 316.1161°
revolutions per day: 14.82410968
mean anomaly at epoch: 195.0068°
orbit number at epoch: 45937

The dashed part of the orbit path shows where the satellite is in the earth's shadow,  

Developed and maintained by Chris Peat, Heavens-Above GmbH. Please read the updated FAQ before sending e-mail. Imprint. DLR